Home   Weather   Valdivia   Past weeks

Flag for Chile Past Weather in Valdivia, Chile — Yesterday and Last 2 Weeks

Now
41 °F

Fog.


Feels Like: 41 °F
Forecast: 43 / 69 °F
Wind: No wind

Location: Puerto Montt Airport

Current Time: Sep 28, 2016 at 5:46:52 AM

Latest Report: Sep 28, 2016 at 5:00 AM


Visibility: 3 mi

Pressure: 30.07 "Hg

Humidity: 100%

Dew Point: 41 °F

Location of ValdiviaLocation

Past Weather in Valdivia — Graph

°F

Valdivia Temperature Yesterday

Maximum temperature yesterday: 59 °F (at 5:00 PM)
Minimum temperature yesterday: 45 °F (at 11:00 PM)
Average temperature yesterday: 51 °F

High & Low Weather Summary for the Past Weeks

 TemperatureHumidityPressure
High64 °F (Sep 23, 2:00 PM)100% (Sep 14, 4:00 AM)30.42 "Hg (Sep 14, 4:00 AM)
Low32 °F (Sep 14, 6:00 AM)37% (Sep 23, 3:00 PM)29.92 "Hg (Sep 16, 5:00 AM)
Average47 °F85%30.13 "Hg
* Reported Sep 13 4:00 AM — Sep 28 4:00 AM, Valdivia, Weather by CustomWeather, © 2016

Note: Actual official high and low records may vary slightly from our data, if they occured in-between our weather recording intervals... More about our weather records

Advertising

Valdivia Weather History for the Previous 24 Hours

Scroll right to see more
 ConditionsComfort  
Time TempWeatherWind HumidityBarometerVisibility
4:00 AM
Wed, Sep 28
39 °FPassing clouds.2 mph100%30.09 "HgN/A
3:00 AM39 °FPassing clouds.2 mph93%30.12 "HgN/A
2:00 AM39 °FPassing clouds.5 mph93%30.15 "HgN/A
1:00 AM41 °FClear.3 mph93%30.15 "Hg10 mi
12:00 AM45 °FClear.3 mph87%30.15 "Hg10 mi
11:00 PM
Tue, Sep 27
45 °FClear.5 mph87%30.18 "Hg10 mi
10:00 PM46 °FClear.8 mph82%30.18 "Hg10 mi
9:00 PM46 °FClear.6 mph87%30.18 "Hg10 mi
8:00 PM50 °FClear.9 mph76%30.18 "Hg10 mi
7:00 PM54 °FScattered clouds.12 mph72%30.15 "HgN/A
6:00 PM55 °FScattered clouds.13 mph63%30.15 "HgN/A
5:00 PM59 °FScattered clouds.13 mph59%30.15 "HgN/A
4:00 PM57 °FPartly sunny.15 mph63%30.15 "HgN/A
3:00 PM57 °FBroken clouds.13 mph67%30.15 "HgN/A
2:00 PM55 °FScattered clouds.13 mph67%30.18 "HgN/A
1:00 PM55 °FScattered clouds.10 mph67%30.18 "HgN/A
12:00 PM54 °FScattered clouds.13 mph67%30.18 "HgN/A
11:00 AM52 °FBroken clouds.12 mph82%30.18 "HgN/A
10:00 AM50 °FOvercast.9 mph88%30.18 "HgN/A
9:00 AM48 °FOvercast.6 mph94%30.15 "HgN/A
7:00 AM48 °FOvercast.6 mph94%30.12 "HgN/A
6:00 AM48 °FOvercast.9 mph100%30.09 "HgN/A
5:00 AM48 °FLow clouds.5 mph94%30.09 "HgN/A
Weather by CustomWeather, © 2016

See weather overviewHow to use our weather pages